Back to catalog

FENGYUN 1C DEB

AlivePO
NORAD 31386·DEBRIS·🇨🇳 China

Launched May 10, 1999 from Taiyuan Satellite Launch Center

Loading…

Next Passes (next 24 hours)

TLE

FreshSource: Space-Track

Epoch: Sep 14, 2026, 10:31 UTC

1 31386U 99025BSS 26257.43856931  .00001615  00000-0  12114-2 0  9991
2 31386  98.4411 250.6524 0194013 246.7378 111.3253 13.87319369976838

Track FENGYUN 1C DEB in real time with AllMySat

Download on the App Store